Flag for Brazil Weather past 2 weeks in Rio Grande, Rio Grande do Sul, Brazil

Now
63 °F

Low clouds.


Feels Like: 63 °F
Forecast: 62 / 69 °F
Wind: 6 mph from East

Location: Pelotas Airport

Current Time: Sep 19, 2014 at 3:58:43 AM

Latest Report: Sep 19, 2014 at 3:00 AM


Visibility: N/A

Pressure: 29.86 "Hg

Humidity: 100%

Dew point: 63 °F

Location of Rio GrandeLocation

Historic Weather in Rio Grande — Graph

°F

Rio Grande temperature yesterday

Maximum temperature yesterday: 66 °F (at 12:00 PM)
Minimum temperature yesterday: 57 °F (at 12:00 AM)
Average temperature yesterday: 63 °F

Past Weeks' High & Low Weather Summary

 TemperatureHumidityPressure
High88 °F (Sep 9, 2:00 PM)100% (Sep 6, 6:00 AM)30.27 "Hg (Sep 6, 6:00 AM)
Low48 °F (Sep 8, 5:00 AM)40% (Sep 7, 12:00 PM)29.56 "Hg (Sep 9, 8:00 PM)
Average62 °F85%30.02 "Hg
* Reported Sep 4 2:00 AM — Sep 19 2:00 AM, Rio Grande, Weather by CustomWeather, © 2014

Note: Actual official high and low records may vary slightly from our data, if they occured in-between our weather recording intervals... More about our weather records

Advertising

Rio Grande weather history for previous 24 hours

 ConditionsComfort  
Time TempWeatherWind HumidityBarometerVisibility
2:00 AM
Sep 19
63 °FFog.6 mph100%29.89 "Hg3 mi
1:00 AM63 °FMostly cloudy.9 mph100%29.92 "Hg6 mi
12:00 AM63 °FPartly cloudy.10 mph94%29.92 "Hg5 mi
11:00 PM
Sep 18
63 °FPassing clouds.9 mph94%29.92 "HgN/A
10:00 PM63 °FPassing clouds.7 mph94%29.95 "HgN/A
9:00 PM63 °FPassing clouds.9 mph94%29.95 "HgN/A
8:00 PM63 °FPassing clouds.23 mph94%29.95 "HgN/A
7:00 PM64 °FPassing clouds.16 mph88%29.95 "HgN/A
6:00 PM64 °FMostly cloudy.14 mph88%29.92 "HgN/A
5:00 PM66 °FMore clouds than sun.14 mph83%29.92 "HgN/A
4:00 PM66 °FOvercast.14 mph83%29.95 "HgN/A
3:00 PM66 °FOvercast.16 mph83%29.98 "HgN/A
2:00 PM66 °FOvercast.16 mph83%29.98 "HgN/A
1:00 PM66 °FOvercast.17 mph78%29.98 "HgN/A
12:00 PM66 °FOvercast.17 mph83%30.01 "HgN/A
11:00 AM64 °FOvercast.16 mph83%30.04 "HgN/A
10:00 AM64 °FOvercast.14 mph83%30.04 "HgN/A
9:00 AM64 °FBroken clouds.15 mph83%30.04 "HgN/A
8:00 AM63 °FBroken clouds.13 mph88%30.04 "HgN/A
7:00 AM61 °FBroken clouds.10 mph88%30.04 "HgN/A
6:00 AM61 °FOvercast.12 mph88%30.04 "HgN/A
5:00 AM59 °FOvercast.10 mph94%30.04 "HgN/A
4:00 AM59 °FPassing clouds.12 mph88%30.04 "HgN/A
3:00 AM59 °FPassing clouds.9 mph88%30.07 "HgN/A
Weather by CustomWeather, © 2014

See weather overviewHow to use our weather pages